Location: Newark
(52.8300°N, 8.0000°E)
Time: 09:14:09
(UTC+00:00)

STARLINK-1119 - Pass Details

Date: 02 February 2020
Orbit: 554 x 555 km, 53.0° (Epoch: 28 February)

Event Time Altitude Azimuth Distance (km) Brightness Sun altitude
Rises 17:46:55 0° 284° (WNW) 2,738 8.5 -14.1°
Reaches altitude 10° 17:49:48 10° 263° (W) 1,840 7.7 -14.5°
Maximum altitude 17:52:27 16° 224° (SW) 1,467 6.5 -14.9°
Drops below altitude 10° 17:55:05 10° 184° (S) 1,833 6.4 -15.3°
Sets 17:57:58 0° 164° (SSE) 2,724 7.1 -15.8°
